Location: Bessat
(45.8735°N, 1.9924°E)
Time: 08:48:23
(UTC+00:00)

Cosmos 1633 Rocket - Pass Details

Date: 11 May 2021
Orbit: 608 x 622 km, 82.5° (Epoch: 15 June)

Event Time Altitude Azimuth Distance (km) Brightness Sun altitude
Rises 20:33:16 0° 350° (N) 2,900 7.4 -12.3°
Reaches altitude 10° 20:35:29 10° 351° (N) 1,992 6.5 -12.6°
Maximum altitude 20:39:55 88° 257° (WSW) 626 3.0 -13.1°
Enters shadow 20:43:38 14° 173° (S) 1,709 4.9 -13.6°
